Overview Statistics Trail Chart Weather Telemetry Raw packets
 

This is the latest recevied weather packets stored in our database for station/object KJ5FA-10. If no packets are shown the sender has not sent any weather packets the latest 10 day(s).

<< 26 27 28 29 30 31 32 >>
Time Temp. Humidity Pressure Rain* Wind** Luminosity Snow
1787800183 21.11° C 96% 1015.7 hPa 0.76 mm - - -
1787799283 21.11° C 96% 1015.6 hPa 1.27 mm - - -
1787798383 21.11° C 95% 1014.7 hPa 2.03 mm - - -
1787797483 21.11° C 96% 1014.5 hPa 2.29 mm - - -
1787796583 21.67° C 96% 1014.7 hPa 2.79 mm - - -
1787795683 21.67° C 96% 1016.6 hPa 4.83 mm - - -
1787794784 21.67° C 96% 1017.9 hPa 13.21 mm - - -
1787793883 21.67° C 96% 1018.9 hPa 23.62 mm - - -
1787792983 21.67° C 95% 1018.4 hPa 23.37 mm - - -
1787792084 21.67° C 95% 1019 hPa 20.83 mm - - -
1787791184 22.22° C 94% 1019.6 hPa 11.68 mm - - -
1787790284 22.78° C 90% 1018.4 hPa 0.76 mm - - -
1787789383 23.89° C 79% 1015.7 hPa 0 mm - - -
1787788484 26.67° C 73% 1014.8 hPa 0 mm - - -
1787787584 28.33° C 73% 1013.9 hPa 0 mm - - -
1787786683 28.89° C 77% 1012.6 hPa 0 mm - - -
1787785783 28.89° C 83% 1012.2 hPa 0 mm - - -
1787784883 29.44° C 86% 1012.1 hPa 0 mm - - -
1787783983 29.44° C 86% 1012.4 hPa 0 mm - - -
1787783083 28.89° C 88% 1011.9 hPa 2.54 mm - - -
1787782183 28.89° C 86% 1012.3 hPa 2.54 mm - - -
1787781283 28.89° C 84% 1012.7 hPa 2.54 mm - - -
1787780383 26.67° C 90% 1012.5 hPa 2.54 mm - - -
1787779486 32.22° C 62% 1013.1 hPa 0 mm - - -
1787778583 34.44° C 46% 1012.6 hPa 0 mm - - -

* Rain latest hour (hover to see other rain measurements)
** Current wind speed in m/s (hover to see current wind gust speed)